{"data":{"norad_id":63138,"epoch":"2026-05-24T08:31:21.459072Z","epoch_age_seconds":124551,"freshness":"FRESH","line1":"1 63138U 25043G   26144.35510948  .00142228  00000+0  10929-2 0  9998","line2":"2 63138  43.0004 154.5128 0001063 269.1576  90.9170 15.70844249 71374","mean_motion":15.70844249,"eccentricity":0.0001063,"inclination_deg":43.0004,"raan_deg":154.5128,"arg_perigee_deg":269.1576,"mean_anomaly_deg":90.917,"bstar":0.0010929,"rev_number":7137,"period_min":91.670450518357,"perigee_km":355.76702706153,"apogee_km":357.19880725592,"semimajor_km":6734.6199171587,"source":"CELESTRAK","updated_at":"2026-05-25T13:38:19.914922Z"}}